Flag for U.S.A. Weather past 2 weeks in Amarillo, Texas, U.S.A.

Now
68 °F

Sunny.


Feels Like: 68 °F
Forecast: 54 / 72 °F
Wind: 8 mph from Northeast

Location: Amarillo International Airport

Current Time: May 30, 2015 at 6:00:06 PM

Latest Report: May 30, 2015 at 4:53 PM


Visibility: 10 mi

Pressure: 30.14 "Hg

Humidity: 55%

Dew point: 51 °F

Location of AmarilloLocation

Historic Weather in Amarillo — Graph

°F

Amarillo temperature yesterday

Maximum temperature yesterday: 79 °F (at 2:53 PM)
Minimum temperature yesterday: 55 °F (at 6:53 AM)
Average temperature yesterday: 66 °F

Past Weeks' High & Low Weather Summary

 TemperatureHumidityPressure
High84 °F (May 27, 2:53 PM)100% (May 19, 8:59 PM)30.29 "Hg (May 19, 8:59 PM)
Low43 °F (May 20, 6:53 AM)28% (May 17, 4:53 PM)29.59 "Hg (May 16, 3:53 PM)
Average61 °F74%29.94 "Hg
* Reported May 15 4:53 PM — May 30 4:53 PM, Amarillo, Weather by CustomWeather, © 2015

Note: Actual official high and low records may vary slightly from our data, if they occured in-between our weather recording intervals... More about our weather records

Advertising

Amarillo weather history for previous 24 hours

 ConditionsComfort  
Time TempWeatherWind HumidityBarometerVisibility
4:53 PM
Sat, May 30
68 °FSunny.8 mph55%30.14 "Hg10 mi
3:53 PM67 °FSunny.9 mph55%30.16 "Hg10 mi
2:53 PM65 °FScattered clouds.10 mph61%30.16 "Hg10 mi
1:53 PM64 °FScattered clouds.9 mph63%30.17 "Hg10 mi
12:53 PM63 °FScattered clouds.15 mph63%30.19 "Hg10 mi
11:53 AM60 °FPartly sunny.14 mph67%30.21 "Hg10 mi
10:53 AM60 °FOvercast.16 mph67%30.21 "Hg10 mi
9:53 AM58 °FOvercast.17 mph72%30.20 "Hg10 mi
8:53 AM56 °FMostly cloudy.12 mph81%30.20 "Hg10 mi
7:53 AM55 °FOvercast.14 mph83%30.16 "Hg10 mi
6:53 AM54 °FOvercast.15 mph83%30.14 "Hg10 mi
5:53 AM55 °FOvercast.20 mph83%30.12 "Hg10 mi
4:53 AM57 °FOvercast.18 mph83%30.10 "Hg10 mi
3:53 AM57 °FPassing clouds.10 mph83%30.08 "Hg10 mi
2:53 AM58 °FPassing clouds.21 mph81%30.04 "Hg10 mi
1:53 AM62 °FPassing clouds.18 mph80%30.04 "Hg10 mi
12:53 AM61 °FClear.3 mph78%30.05 "Hg10 mi
11:53 PM
Fri, May 29
63 °FClear.7 mph68%30.03 "Hg10 mi
10:53 PM62 °FLight rain. Mostly cloudy.9 mph78%30.02 "Hg10 mi
9:53 PM68 °FSunny.5 mph73%30.02 "Hg10 mi
8:53 PM68 °FSunny.8 mph70%29.99 "Hg10 mi
7:53 PM71 °FScattered clouds.10 mph59%29.96 "Hg10 mi
6:53 PM75 °FSunny.12 mph50%29.93 "Hg10 mi
Weather by CustomWeather, © 2015

See weather overviewHow to use our weather pages